Location: St. Louis
(38.6270°N, 90.1994°W)
Time: 15:22:13
(UTC-06:00)

AO-7 - Visible Passes

Search period start: 22 January 2022 00:00
Search period end: 01 February 2022 00:00
Orbit: 1440 x 1459 km, 101.9° (Epoch: 22 January)

Date Brightness Start Highest point End Pass type
(mag) Time Alt. Az. Time Alt. Az. Time Alt. Az.
22 Jan ? 03:31:48 10° NNE 03:39:32 39° E 03:47:12 10° SSE visible
22 Jan ? 05:24:25 10° N 05:32:15 46° WNW 05:40:03 10° SW visible
23 Jan ? 02:34:37 10° ENE 02:38:50 15° E 02:43:02 10° ESE visible
23 Jan ? 04:24:11 10° NNE 04:32:37 82° ESE 04:41:00 10° SSW visible
23 Jan ? 06:18:19 10° N 06:24:23 23° NW 06:30:27 10° W visible
24 Jan ? 03:24:55 10° NE 03:32:26 35° E 03:39:53 10° SSE visible
24 Jan ? 05:17:18 10° N 05:25:17 51° WNW 05:33:14 10° SW visible
25 Jan ? 02:28:27 10° ENE 02:31:40 12° E 02:34:52 10° ESE visible
25 Jan ? 04:17:10 10° NNE 04:25:35 75° ESE 04:33:56 10° SSW visible
25 Jan ? 06:11:06 10° N 06:17:29 25° NW 06:23:52 10° WSW visible
26 Jan ? 03:18:03 10° NE 03:25:20 32° E 03:32:32 10° SSE visible
26 Jan ? 05:10:12 10° N 05:18:18 56° WNW 05:26:22 10° SW visible
27 Jan ? 02:22:58 10° ENE 02:24:29 11° E 02:26:00 10° E visible
27 Jan ? 04:10:10 10° NNE 04:18:32 68° ESE 04:26:51 10° S visible
27 Jan ? 06:03:53 10° N 06:10:34 28° WNW 06:17:15 10° WSW visible
28 Jan ? 03:11:15 10° NE 03:18:13 28° E 03:25:08 10° SSE visible
28 Jan ? 05:03:07 10° N 05:11:19 61° WNW 05:19:29 10° SW visible
29 Jan ? 04:03:11 10° NNE 04:11:30 62° ESE 04:19:44 10° S visible
29 Jan ? 05:56:42 10° N 06:03:39 30° WNW 06:10:35 10° WSW visible
30 Jan ? 03:04:28 10° NE 03:11:06 25° E 03:17:40 10° SSE visible
30 Jan ? 04:56:02 10° NNE 05:04:20 67° WNW 05:12:34 10° SSW visible
31 Jan ? 03:56:12 10° NNE 04:04:26 56° ESE 04:12:35 10° S visible
31 Jan ? 05:49:32 10° N 05:56:43 33° WNW 06:03:53 10° WSW visible
